| time (UTC) | temp F | wind direction | speed MPH | gust MPH | rain 1hr in | rain 24hr in | rain mn in | humidity % | barometer mb |
| 20260905130004 | 81 | 263 | 2.0 | 6.0 | 0.00 | 0.00 | 0.00 | 75 | 973.8 |
| 20260905125504 | 80 | 249 | 1.0 | 6.0 | 0.00 | 0.00 | 0.00 | 76 | 973.9 |
| 20260905125002 | 80 | 246 | 1.0 | 6.0 | 0.00 | 0.00 | 0.00 | 77 | 974.0 |
| 20260905124503 | 79 | 28 | 2.0 | 8.0 | 0.00 | 0.00 | 0.00 | 77 | 973.9 |
| 20260905124001 | 79 | 13 | 2.0 | 8.0 | 0.00 | 0.00 | 0.00 | 77 | 974.0 |
| 20260905123600 | 79 | 271 | 2.0 | 6.0 | 0.00 | 0.00 | 0.00 | 78 | 974.0 |
| 20260905123105 | 78 | 275 | 1.0 | 6.0 | 0.00 | 0.00 | 0.00 | 79 | 973.9 |
| 20260905122557 | 78 | 265 | 1.0 | 6.0 | 0.00 | 0.00 | 0.00 | 80 | 973.9 |
| 20260905122100 | 77 | 269 | 2.0 | 7.0 | 0.00 | 0.00 | 0.00 | 80 | 974.0 |
| 20260905121554 | 77 | 157 | 2.0 | 9.0 | 0.00 | 0.00 | 0.00 | 81 | 974.1 |
| 20260905121053 | 76 | 200 | 1.0 | 5.0 | 0.00 | 0.00 | 0.00 | 81 | 974.1 |
| 20260905120552 | 76 | 273 | 2.0 | 6.0 | 0.00 | 0.00 | 0.00 | 82 | 974.0 |
| 20260905120051 | 76 | 275 | 2.0 | 10.0 | 0.00 | 0.00 | 0.00 | 82 | 974.0 |
| 20260905115554 | 75 | 360 | 2.0 | 10.0 | 0.00 | 0.00 | 0.00 | 82 | 973.9 |
| 20260905115053 | 75 | 275 | 1.0 | 6.0 | 0.00 | 0.00 | 0.00 | 83 | 973.9 |
| 20260905114551 | 75 | 275 | 2.0 | 6.0 | 0.00 | 0.00 | 0.00 | 83 | 973.9 |
| 20260905114050 | 75 | 244 | 2.0 | 6.0 | 0.00 | 0.00 | 0.00 | 83 | 973.9 |
| 20260905113550 | 75 | 275 | 2.0 | 6.0 | 0.00 | 0.00 | 0.00 | 83 | 973.8 |
| 20260905113051 | 75 | 5 | 2.0 | 6.0 | 0.00 | 0.00 | 0.00 | 83 | 973.7 |
| 20260905112549 | 75 | 34 | 1.0 | 6.0 | 0.00 | 0.00 | 0.00 | 83 | 973.7 |
| 20260905112048 | 75 | 270 | 2.0 | 6.0 | 0.00 | 0.00 | 0.00 | 83 | 973.8 |
| 20260905111553 | 75 | 53 | 2.0 | 6.0 | 0.00 | 0.00 | 0.00 | 83 | 973.9 |
| 20260905111047 | 75 | 258 | 1.0 | 6.0 | 0.00 | 0.00 | 0.00 | 83 | 973.7 |
| 20260905110549 | 75 | 270 | 2.0 | 6.0 | 0.00 | 0.00 | 0.00 | 83 | 973.8 |
| 20260905110049 | 75 | 15 | 2.0 | 6.0 | 0.00 | 0.00 | 0.00 | 83 | 973.8 |
| 20260905105548 | 75 | 271 | 2.0 | 6.0 | 0.00 | 0.00 | 0.00 | 83 | 973.8 |
| 20260905105046 | 75 | 271 | 2.0 | 6.0 | 0.00 | 0.00 | 0.00 | 83 | 973.7 |
| 20260905104602 | 75 | 258 | 1.0 | 4.0 | 0.00 | 0.00 | 0.00 | 83 | 973.7 |
| 20260905104045 | 74 | 267 | 1.0 | 4.0 | 0.00 | 0.00 | 0.00 | 84 | 973.7 |
| 20260905103544 | 74 | 267 | 1.0 | 6.0 | 0.00 | 0.00 | 0.00 | 84 | 973.7 |
| 20260905103044 | 74 | 272 | 2.0 | 6.0 | 0.00 | 0.00 | 0.00 | 84 | 973.6 |
| 20260905102543 | 74 | 275 | 0.0 | 4.0 | 0.00 | 0.00 | 0.00 | 84 | 973.6 |
| 20260905102043 | 74 | 275 | 1.0 | 4.0 | 0.00 | 0.00 | 0.00 | 84 | 973.6 |
| 20260905101543 | 74 | 275 | 0.0 | 6.0 | 0.00 | 0.00 | 0.00 | 85 | 973.6 |
| 20260905101042 | 74 | 271 | 0.0 | 3.0 | 0.00 | 0.00 | 0.00 | 85 | 973.7 |
| 20260905100543 | 74 | 271 | 0.0 | 2.0 | 0.00 | 0.00 | 0.00 | 85 | 973.6 |
| 20260905100045 | 74 | 271 | 0.0 | 2.0 | 0.00 | 0.00 | 0.00 | 85 | 973.6 |
| 20260905095542 | 74 | 271 | 0.0 | 3.0 | 0.00 | 0.00 | 0.00 | 85 | 973.7 |
| 20260905095042 | 74 | 271 | 0.0 | 2.0 | 0.00 | 0.00 | 0.00 | 85 | 973.6 |
| 20260905094543 | 74 | 271 | 0.0 | 3.0 | 0.00 | 0.00 | 0.00 | 85 | 973.6 |
| 20260905094042 | 74 | 271 | 1.0 | 3.0 | 0.00 | 0.00 | 0.00 | 85 | 973.7 |
| 20260905093541 | 74 | 271 | 0.0 | 2.0 | 0.00 | 0.00 | 0.00 | 85 | 973.6 |
| 20260905093041 | 74 | 271 | 0.0 | 1.0 | 0.00 | 0.00 | 0.00 | 84 | 973.7 |
| 20260905092541 | 74 | 271 | 0.0 | 2.0 | 0.00 | 0.00 | 0.00 | 84 | 973.7 |
| 20260905092041 | 74 | 271 | 0.0 | 4.0 | 0.00 | 0.00 | 0.00 | 84 | 973.7 |
| 20260905091541 | 74 | 271 | 0.0 | 4.0 | 0.00 | 0.00 | 0.00 | 84 | 973.7 |
| 20260905091041 | 74 | 270 | 0.0 | 4.0 | 0.00 | 0.00 | 0.00 | 85 | 973.7 |
| 20260905090541 | 74 | 270 | 0.0 | 4.0 | 0.00 | 0.00 | 0.00 | 85 | 973.8 |
| 20260905090106 | 74 | 270 | 0.0 | 2.0 | 0.00 | 0.00 | 0.00 | 85 | 973.7 |
| 20260905085543 | 74 | 270 | 0.0 | 0.0 | 0.00 | 0.00 | 0.00 | 85 | 973.7 |
| 20260905085044 | 74 | 270 | 0.0 | 3.0 | 0.00 | 0.00 | 0.00 | 85 | 973.7 |
| 20260905084540 | 74 | 270 | 1.0 | 3.0 | 0.00 | 0.00 | 0.00 | 86 | 973.6 |
| 20260905084038 | 74 | 270 | 1.0 | 4.0 | 0.00 | 0.00 | 0.00 | 87 | 973.6 |
| 20260905083537 | 73 | 270 | 1.0 | 4.0 | 0.00 | 0.00 | 0.00 | 87 | 973.6 |
| 20260905083036 | 73 | 360 | 1.0 | 4.0 | 0.00 | 0.00 | 0.00 | 88 | 973.6 |
| 20260905082535 | 73 | 360 | 1.0 | 4.0 | 0.00 | 0.00 | 0.00 | 88 | 973.7 |
| 20260905082034 | 72 | 360 | 0.0 | 3.0 | 0.00 | 0.00 | 0.00 | 89 | 973.7 |
| 20260905081533 | 72 | 360 | 0.0 | 3.0 | 0.00 | 0.00 | 0.00 | 89 | 973.8 |
| 20260905081031 | 72 | 5 | 0.0 | 2.0 | 0.00 | 0.00 | 0.00 | 89 | 973.9 |
| 20260905080531 | 72 | 5 | 0.0 | 1.0 | 0.00 | 0.00 | 0.00 | 89 | 974.0 |
| 20260905080030 | 72 | 5 | 0.0 | 0.0 | 0.00 | 0.00 | 0.00 | 89 | 974.2 |
| 20260905075530 | 72 | 5 | 0.0 | 2.0 | 0.00 | 0.00 | 0.00 | 89 | 974.1 |
| 20260905075029 | 72 | 5 | 0.0 | 2.0 | 0.00 | 0.00 | 0.00 | 89 | 974.2 |
| 20260905074529 | 72 | 5 | 0.0 | 2.0 | 0.00 | 0.00 | 0.00 | 89 | 974.2 |
| 20260905074028 | 72 | 5 | 0.0 | 2.0 | 0.00 | 0.00 | 0.00 | 89 | 974.3 |
| 20260905073529 | 72 | 5 | 0.0 | 2.0 | 0.00 | 0.00 | 0.00 | 89 | 974.3 |
| 20260905073030 | 72 | 5 | 0.0 | 0.0 | 0.00 | 0.00 | 0.00 | 89 | 974.4 |
| 20260905072527 | 72 | 5 | 0.0 | 0.0 | 0.00 | 0.00 | 0.00 | 89 | 974.4 |
| 20260905072027 | 72 | 5 | 0.0 | 0.0 | 0.00 | 0.00 | 0.00 | 88 | 974.4 |
| 20260905071527 | 72 | 5 | 0.0 | 0.0 | 0.00 | 0.00 | 0.00 | 88 | 974.5 |
| 20260905071024 | 72 | 5 | 0.0 | 1.0 | 0.00 | 0.00 | 0.00 | 88 | 974.5 |
| 20260905070524 | 72 | 5 | 0.0 | 1.0 | 0.00 | 0.00 | 0.00 | 88 | 974.6 |
| 20260905070025 | 72 | 5 | 0.0 | 0.0 | 0.00 | 0.00 | 0.00 | 87 | 974.7 |
| 20260905065523 | 72 | 5 | 0.0 | 0.0 | 0.00 | 0.00 | 0.00 | 87 | 974.8 |
| 20260905065022 | 72 | 5 | 0.0 | 0.0 | 0.00 | 0.00 | 0.00 | 87 | 974.9 |
| 20260905064524 | 72 | 5 | 0.0 | 0.0 | 0.00 | 0.00 | 0.00 | 87 | 975.0 |
| 20260905064025 | 72 | 5 | 0.0 | 0.0 | 0.00 | 0.00 | 0.00 | 87 | 974.9 |
| 20260905063522 | 72 | 5 | 0.0 | 0.0 | 0.00 | 0.00 | 0.00 | 86 | 975.0 |
| 20260905063020 | 72 | 5 | 0.0 | 0.0 | 0.00 | 0.00 | 0.00 | 86 | 975.1 |
| 20260905062519 | 72 | 5 | 0.0 | 0.0 | 0.00 | 0.00 | 0.00 | 86 | 975.2 |
| 20260905062018 | 72 | 5 | 0.0 | 0.0 | 0.00 | 0.00 | 0.00 | 86 | 975.3 |
| 20260905061530 | 72 | 5 | 0.0 | 0.0 | 0.00 | 0.00 | 0.00 | 86 | 975.3 |
| 20260905061017 | 72 | 5 | 0.0 | 0.0 | 0.00 | 0.00 | 0.00 | 86 | 975.4 |
| 20260905060515 | 72 | 5 | 0.0 | 0.0 | 0.00 | 0.00 | 0.00 | 86 | 975.5 |
| 20260905060016 | 72 | 5 | 0.0 | 0.0 | 0.00 | 0.00 | 0.00 | 86 | 975.6 |
| 20260905055519 | 72 | 5 | 0.0 | 0.0 | 0.00 | 0.00 | 0.00 | 86 | 975.7 |
| 20260905055014 | 72 | 5 | 0.0 | 0.0 | 0.00 | 0.00 | 0.00 | 86 | 975.8 |
| 20260905054515 | 72 | 5 | 0.0 | 0.0 | 0.00 | 0.00 | 0.00 | 86 | 975.8 |
| 20260905054012 | 72 | 5 | 0.0 | 0.0 | 0.00 | 0.00 | 0.00 | 85 | 975.9 |
| 20260905053513 | 72 | 5 | 0.0 | 0.0 | 0.00 | 0.00 | 0.00 | 85 | 976.1 |
| 20260905053012 | 72 | 5 | 0.0 | 0.0 | 0.00 | 0.00 | 0.00 | 85 | 976.2 |
| 20260905052509 | 72 | 5 | 0.0 | 0.0 | 0.00 | 0.00 | 0.00 | 85 | 976.3 |
| 20260905052009 | 72 | 5 | 0.0 | 0.0 | 0.00 | 0.00 | 0.00 | 85 | 976.3 |
| 20260905051517 | 72 | 5 | 0.0 | 0.0 | 0.00 | 0.00 | 0.00 | 85 | 976.3 |
| 20260905051007 | 72 | 5 | 0.0 | 0.0 | 0.00 | 0.00 | 0.00 | 85 | 976.4 |
| 20260905050507 | 72 | 5 | 0.0 | 0.0 | 0.00 | 0.00 | 0.00 | 85 | 976.5 |
| 20260905050006 | 72 | 5 | 0.0 | 0.0 | 0.00 | 0.00 | 0.00 | 84 | 976.5 |
| 20260905045505 | 72 | 5 | 0.0 | 0.0 | 0.00 | 0.00 | 0.00 | 84 | 976.5 |
| 20260905045004 | 72 | 5 | 0.0 | 0.0 | 0.00 | 0.00 | 0.00 | 84 | 976.6 |
| 20260905044505 | 73 | 5 | 0.0 | 0.0 | 0.00 | 0.00 | 0.00 | 84 | 976.7 |
| 20260905044002 | 73 | 5 | 0.0 | 0.0 | 0.00 | 0.00 | 0.00 | 84 | 976.7 |
| 20260905043502 | 73 | 5 | 0.0 | 1.0 | 0.00 | 0.00 | 0.00 | 84 | 976.7 |
| 20260905043002 | 73 | 5 | 0.0 | 1.0 | 0.00 | 0.00 | 0.00 | 84 | 976.7 |
| 20260905042502 | 73 | 5 | 0.0 | 0.0 | 0.00 | 0.00 | 0.00 | 83 | 976.7 |
| 20260905042104 | 73 | 5 | 0.0 | 0.0 | 0.00 | 0.00 | 0.00 | 83 | 976.7 |
| 20260905041600 | 73 | 5 | 0.0 | 0.0 | 0.00 | 0.00 | 0.00 | 82 | 976.8 |
| 20260905041059 | 73 | 5 | 0.0 | 0.0 | 0.00 | 0.00 | 0.00 | 82 | 976.7 |
| 20260905040558 | 73 | 5 | 0.0 | 0.0 | 0.00 | 0.00 | 0.00 | 82 | 976.8 |
| 20260905040057 | 73 | 5 | 0.0 | 0.0 | 0.00 | 0.00 | 0.00 | 81 | 976.8 |
| 20260905035557 | 73 | 5 | 0.0 | 0.0 | 0.00 | 0.00 | 0.00 | 82 | 976.8 |
| 20260905035056 | 73 | 5 | 0.0 | 0.0 | 0.00 | 0.00 | 0.00 | 81 | 976.7 |
| 20260905034608 | 74 | 5 | 0.0 | 0.0 | 0.00 | 0.00 | 0.00 | 81 | 976.6 |
| 20260905034054 | 74 | 5 | 0.0 | 3.0 | 0.00 | 0.00 | 0.00 | 81 | 976.6 |
| 20260905033554 | 74 | 5 | 0.0 | 3.0 | 0.00 | 0.00 | 0.00 | 81 | 976.7 |
| 20260905033104 | 74 | 5 | 0.0 | 1.0 | 0.00 | 0.00 | 0.00 | 80 | 976.6 |
| 20260905032555 | 74 | 5 | 0.0 | 0.0 | 0.00 | 0.00 | 0.00 | 80 | 976.5 |
| 20260905032054 | 74 | 5 | 0.0 | 0.0 | 0.00 | 0.00 | 0.00 | 81 | 976.7 |
| 20260905031557 | 74 | 5 | 0.0 | 0.0 | 0.00 | 0.00 | 0.00 | 80 | 976.7 |
| 20260905031055 | 74 | 5 | 0.0 | 1.0 | 0.00 | 0.00 | 0.00 | 80 | 976.8 |
| 20260905030554 | 74 | 5 | 0.0 | 1.0 | 0.00 | 0.00 | 0.00 | 79 | 976.9 |
| 20260905030054 | 75 | 5 | 0.0 | 0.0 | 0.00 | 0.00 | 0.00 | 79 | 976.8 |
| 20260905025555 | 75 | 5 | 0.0 | 0.0 | 0.00 | 0.00 | 0.00 | 79 | 976.8 |
| 20260905025054 | 75 | 5 | 0.0 | 0.0 | 0.00 | 0.00 | 0.00 | 78 | 976.7 |
| 20260905024554 | 75 | 5 | 0.0 | 0.0 | 0.00 | 0.00 | 0.00 | 78 | 976.7 |
| 20260905024053 | 75 | 5 | 0.0 | 0.0 | 0.00 | 0.00 | 0.00 | 78 | 976.7 |
| 20260905023556 | 75 | 5 | 0.0 | 0.0 | 0.00 | 0.00 | 0.00 | 77 | 976.7 |
| 20260905023053 | 75 | 5 | 0.0 | 0.0 | 0.00 | 0.00 | 0.00 | 77 | 976.5 |
| 20260905022552 | 75 | 5 | 0.0 | 0.0 | 0.00 | 0.00 | 0.00 | 77 | 976.3 |
| 20260905022052 | 76 | 5 | 0.0 | 0.0 | 0.00 | 0.00 | 0.00 | 76 | 976.1 |
| 20260905021552 | 76 | 5 | 0.0 | 0.0 | 0.00 | 0.00 | 0.00 | 76 | 975.9 |
| 20260905021052 | 76 | 5 | 0.0 | 0.0 | 0.00 | 0.00 | 0.00 | 75 | 975.7 |
| 20260905020552 | 76 | 5 | 0.0 | 0.0 | 0.00 | 0.00 | 0.00 | 75 | 975.6 |
| 20260905020052 | 76 | 5 | 0.0 | 0.0 | 0.00 | 0.00 | 0.00 | 74 | 975.4 |
| 20260905015555 | 77 | 5 | 0.0 | 1.0 | 0.00 | 0.00 | 0.00 | 74 | 975.2 |
| 20260905015052 | 77 | 5 | 0.0 | 3.0 | 0.00 | 0.00 | 0.00 | 74 | 975.0 |
| 20260905014551 | 77 | 5 | 0.0 | 2.0 | 0.00 | 0.00 | 0.00 | 73 | 975.0 |
| 20260905014051 | 77 | 5 | 0.0 | 0.0 | 0.00 | 0.00 | 0.00 | 72 | 974.9 |
| 20260905013551 | 78 | 5 | 0.0 | 1.0 | 0.00 | 0.00 | 0.00 | 72 | 974.7 |
| 20260905013109 | 78 | 5 | 0.0 | 3.0 | 0.00 | 0.00 | 0.00 | 71 | 974.8 |
| 20260905012550 | 78 | 5 | 1.0 | 3.0 | 0.00 | 0.00 | 0.00 | 71 | 974.8 |
| 20260905012051 | 78 | 5 | 0.0 | 0.0 | 0.00 | 0.00 | 0.00 | 70 | 974.6 |
| 20260905011554 | 79 | 5 | 0.0 | 0.0 | 0.00 | 0.00 | 0.00 | 69 | 974.5 |
| 20260905011050 | 79 | 5 | 0.0 | 0.0 | 0.00 | 0.00 | 0.00 | 67 | 974.7 |
| 20260905010551 | 79 | 5 | 0.0 | 0.0 | 0.00 | 0.00 | 0.00 | 67 | 974.8 |
| 20260905010051 | 80 | 5 | 0.0 | 0.0 | 0.00 | 0.00 | 0.00 | 67 | 974.9 |
| 20260905005553 | 80 | 5 | 0.0 | 2.0 | 0.00 | 0.00 | 0.00 | 67 | 974.9 |
| 20260905005050 | 80 | 5 | 0.0 | 2.0 | 0.00 | 0.00 | 0.00 | 66 | 975.1 |
| 20260905004625 | 81 | 5 | 0.0 | 0.0 | 0.00 | 0.00 | 0.00 | 66 | 975.1 |
| 20260905004049 | 81 | 5 | 0.0 | 0.0 | 0.00 | 0.00 | 0.00 | 66 | 975.1 |
| 20260905003550 | 82 | 5 | 0.0 | 0.0 | 0.00 | 0.00 | 0.00 | 65 | 975.2 |
| 20260905003049 | 82 | 5 | 0.0 | 0.0 | 0.00 | 0.00 | 0.00 | 65 | 975.4 |
| 20260905002548 | 82 | 5 | 0.0 | 2.0 | 0.00 | 0.00 | 0.00 | 64 | 975.6 |
| 20260905002052 | 83 | 5 | 0.0 | 2.0 | 0.00 | 0.00 | 0.00 | 63 | 975.4 |
| 20260905001557 | 83 | 5 | 0.0 | 1.0 | 0.00 | 0.00 | 0.00 | 63 | 975.3 |
| 20260905001048 | 83 | 5 | 0.0 | 1.0 | 0.00 | 0.00 | 0.00 | 62 | 975.1 |
| 20260905000549 | 84 | 5 | 0.0 | 8.0 | 0.00 | 0.00 | 0.00 | 61 | 975.0 |
| 20260905000051 | 84 | 5 | 1.0 | 8.0 | 0.00 | 0.00 | 0.00 | 60 | 975.2 |
| 20260904235547 | 84 | 271 | 0.0 | 2.0 | 0.00 | 0.00 | 0.00 | 61 | 975.0 |
| 20260904235048 | 85 | 271 | 0.0 | 6.0 | 0.00 | 0.00 | 0.00 | 60 | 975.0 |
| 20260904234547 | 85 | 271 | 1.0 | 6.0 | 0.00 | 0.00 | 0.00 | 58 | 974.9 |
| 20260904234046 | 86 | 215 | 0.0 | 2.0 | 0.00 | 0.00 | 0.00 | 59 | 974.9 |
| 20260904233546 | 86 | 215 | 0.0 | 2.0 | 0.00 | 0.00 | 0.00 | 59 | 974.9 |
| 20260904233046 | 86 | 215 | 0.0 | 2.0 | 0.00 | 0.00 | 0.00 | 58 | 974.8 |
| 20260904232547 | 86 | 215 | 0.0 | 6.0 | 0.00 | 0.00 | 0.00 | 57 | 974.8 |
| 20260904232050 | 87 | 215 | 0.0 | 6.0 | 0.00 | 0.00 | 0.00 | 58 | 974.7 |
| 20260904231546 | 87 | 216 | 1.0 | 4.0 | 0.00 | 0.00 | 0.00 | 57 | 974.7 |
| 20260904231046 | 88 | 216 | 1.0 | 4.0 | 0.00 | 0.00 | 0.00 | 56 | 974.8 |
| 20260904230546 | 88 | 216 | 0.0 | 5.0 | 0.00 | 0.00 | 0.00 | 56 | 974.9 |
| 20260904230046 | 89 | 216 | 1.0 | 6.0 | 0.00 | 0.00 | 0.00 | 55 | 975.2 |
| 20260904225544 | 89 | 215 | 0.0 | 10.0 | 0.00 | 0.00 | 0.00 | 56 | 975.3 |
| 20260904225048 | 90 | 197 | 6.0 | 10.0 | 0.00 | 0.00 | 0.00 | 55 | 975.2 |
| 20260904224544 | 91 | 208 | 2.0 | 10.0 | 0.00 | 0.00 | 0.00 | 56 | 975.3 |
| 20260904224044 | 91 | 269 | 1.0 | 3.0 | 0.00 | 0.00 | 0.00 | 60 | 975.4 |
| 20260904223545 | 91 | 269 | 0.0 | 3.0 | 0.00 | 0.00 | 0.00 | 60 | 975.2 |
| 20260904223045 | 91 | 269 | 0.0 | 3.0 | 0.00 | 0.00 | 0.00 | 61 | 975.3 |
| 20260904222544 | 92 | 269 | 0.0 | 2.0 | 0.00 | 0.00 | 0.00 | 61 | 975.3 |
| 20260904222045 | 92 | 269 | 0.0 | 1.0 | 0.00 | 0.00 | 0.00 | 60 | 975.3 |
| 20260904221550 | 92 | 269 | 0.0 | 2.0 | 0.00 | 0.00 | 0.00 | 58 | 975.3 |
| 20260904221044 | 92 | 269 | 0.0 | 4.0 | 0.00 | 0.00 | 0.00 | 59 | 975.2 |
| 20260904220544 | 92 | 269 | 1.0 | 4.0 | 0.00 | 0.00 | 0.00 | 57 | 975.1 |
| 20260904220044 | 93 | 217 | 0.0 | 4.0 | 0.00 | 0.00 | 0.00 | 58 | 975.1 |
| 20260904215543 | 93 | 217 | 0.0 | 4.0 | 0.00 | 0.00 | 0.00 | 56 | 975.2 |
| 20260904215043 | 93 | 57 | 0.0 | 3.0 | 0.00 | 0.00 | 0.00 | 57 | 975.1 |
| 20260904214543 | 93 | 59 | 1.0 | 6.0 | 0.00 | 0.00 | 0.00 | 56 | 975.1 |
| 20260904214042 | 93 | 94 | 2.0 | 6.0 | 0.00 | 0.00 | 0.00 | 56 | 975.0 |
| 20260904213542 | 93 | 200 | 1.0 | 4.0 | 0.00 | 0.00 | 0.00 | 55 | 975.0 |
| 20260904213044 | 94 | 360 | 1.0 | 6.0 | 0.00 | 0.00 | 0.00 | 55 | 974.7 |
| 20260904212545 | 94 | 253 | 1.0 | 7.0 | 0.00 | 0.00 | 0.00 | 54 | 974.8 |
| 20260904212041 | 94 | 266 | 2.0 | 7.0 | 0.00 | 0.00 | 0.00 | 53 | 974.8 |
| 20260904211543 | 95 | 270 | 2.0 | 8.0 | 0.00 | 0.00 | 0.00 | 53 | 974.9 |
| 20260904211041 | 95 | 238 | 1.0 | 5.0 | 0.00 | 0.00 | 0.00 | 52 | 974.8 |
| 20260904210541 | 95 | 267 | 1.0 | 8.0 | 0.00 | 0.00 | 0.00 | 52 | 974.8 |
| 20260904210041 | 95 | 261 | 2.0 | 8.0 | 0.00 | 0.00 | 0.00 | 52 | 974.9 |
| 20260904205543 | 96 | 5 | 1.0 | 4.0 | 0.00 | 0.00 | 0.00 | 51 | 974.7 |
| 20260904205040 | 96 | 237 | 1.0 | 4.0 | 0.00 | 0.00 | 0.00 | 50 | 974.6 |
| 20260904204543 | 96 | 261 | 1.0 | 4.0 | 0.00 | 0.00 | 0.00 | 50 | 974.5 |
| 20260904204044 | 96 | 270 | 0.0 | 4.0 | 0.00 | 0.00 | 0.00 | 50 | 974.4 |
| 20260904203540 | 96 | 270 | 1.0 | 4.0 | 0.00 | 0.00 | 0.00 | 50 | 974.4 |
| 20260904203040 | 96 | 270 | 0.0 | 4.0 | 0.00 | 0.00 | 0.00 | 49 | 974.3 |
| 20260904202540 | 96 | 270 | 1.0 | 3.0 | 0.00 | 0.00 | 0.00 | 49 | 974.3 |
| 20260904202039 | 97 | 270 | 1.0 | 3.0 | 0.00 | 0.00 | 0.00 | 49 | 974.3 |
| 20260904201539 | 97 | 270 | 1.0 | 7.0 | 0.00 | 0.00 | 0.00 | 48 | 974.2 |
| 20260904201039 | 97 | 270 | 1.0 | 7.0 | 0.00 | 0.00 | 0.00 | 46 | 974.0 |
| 20260904200538 | 98 | 11 | 1.0 | 6.0 | 0.00 | 0.00 | 0.00 | 45 | 974.2 |
| 20260904200037 | 98 | 271 | 1.0 | 6.0 | 0.00 | 0.00 | 0.00 | 46 | 974.3 |
| 20260904195535 | 98 | 40 | 2.0 | 6.0 | 0.00 | 0.00 | 0.00 | 46 | 974.5 |
| 20260904195033 | 98 | 70 | 1.0 | 5.0 | 0.00 | 0.00 | 0.00 | 49 | 974.6 |
| 20260904194535 | 97 | 275 | 1.0 | 6.0 | 0.00 | 0.00 | 0.00 | 48 | 974.8 |
| 20260904194031 | 97 | 275 | 1.0 | 4.0 | 0.00 | 0.00 | 0.00 | 48 | 974.8 |
| 20260904193532 | 96 | 274 | 1.0 | 4.0 | 0.00 | 0.00 | 0.00 | 51 | 975.1 |
| 20260904193031 | 95 | 271 | 1.0 | 4.0 | 0.00 | 0.00 | 0.00 | 50 | 975.1 |
| 20260904192531 | 95 | 241 | 0.0 | 4.0 | 0.00 | 0.00 | 0.00 | 51 | 975.1 |
| 20260904192033 | 95 | 241 | 1.0 | 5.0 | 0.00 | 0.00 | 0.00 | 50 | 975.1 |
| 20260904191530 | 95 | 235 | 0.0 | 5.0 | 0.00 | 0.00 | 0.00 | 51 | 975.2 |
| 20260904191034 | 95 | 270 | 1.0 | 4.0 | 0.00 | 0.00 | 0.00 | 49 | 975.3 |
| 20260904190535 | 96 | 270 | 1.0 | 4.0 | 0.00 | 0.00 | 0.00 | 48 | 975.3 |
| 20260904190030 | 96 | 25 | 0.0 | 4.0 | 0.00 | 0.00 | 0.00 | 48 | 975.3 |
| 20260904185529 | 97 | 25 | 1.0 | 8.0 | 0.00 | 0.00 | 0.00 | 47 | 975.2 |
| 20260904185029 | 98 | 12 | 2.0 | 8.0 | 0.00 | 0.00 | 0.00 | 46 | 975.4 |
| 20260904184528 | 99 | 267 | 1.0 | 4.0 | 0.00 | 0.00 | 0.00 | 46 | 975.4 |
| 20260904184026 | 98 | 254 | 1.0 | 5.0 | 0.00 | 0.00 | 0.00 | 48 | 975.5 |
| 20260904183525 | 96 | 51 | 2.0 | 5.0 | 0.00 | 0.00 | 0.00 | 49 | 975.7 |
| 20260904183026 | 96 | 41 | 0.0 | 3.0 | 0.00 | 0.00 | 0.00 | 51 | 975.8 |
| 20260904182523 | 95 | 41 | 1.0 | 6.0 | 0.00 | 0.00 | 0.00 | 50 | 975.8 |
| 20260904182023 | 96 | 51 | 1.0 | 6.0 | 0.00 | 0.00 | 0.00 | 51 | 975.8 |
| 20260904181527 | 96 | 233 | 0.0 | 5.0 | 0.00 | 0.00 | 0.00 | 49 | 975.8 |
| 20260904181025 | 96 | 234 | 1.0 | 4.0 | 0.00 | 0.00 | 0.00 | 50 | 976.0 |
| 20260904180528 | 96 | 220 | 1.0 | 6.0 | 0.00 | 0.00 | 0.00 | 50 | 976.0 |
| 20260904180039 | 95 | 192 | 2.0 | 6.0 | 0.00 | 0.00 | 0.00 | 50 | 976.1 |
| 20260904175520 | 96 | 243 | 1.0 | 9.0 | 0.00 | 0.00 | 0.00 | 49 | 976.2 |
| 20260904175022 | 96 | 202 | 0.0 | 9.0 | 0.00 | 0.00 | 0.00 | 49 | 976.2 |
| 20260904174520 | 97 | 226 | 1.0 | 6.0 | 0.00 | 0.00 | 0.00 | 49 | 976.2 |
| 20260904174020 | 97 | 23 | 2.0 | 5.0 | 0.00 | 0.00 | 0.00 | 47 | 976.2 |
| 20260904173518 | 97 | 226 | 2.0 | 7.0 | 0.00 | 0.00 | 0.00 | 47 | 976.3 |
| 20260904173029 | 98 | 210 | 3.0 | 10.0 | 0.00 | 0.00 | 0.00 | 47 | 976.3 |
| 20260904172517 | 97 | 251 | 2.0 | 10.0 | 0.00 | 0.00 | 0.00 | 48 | 976.3 |
| 20260904172018 | 97 | 245 | 2.0 | 6.0 | 0.00 | 0.00 | 0.00 | 47 | 976.3 |
| 20260904171534 | 97 | 260 | 2.0 | 7.0 | 0.00 | 0.00 | 0.00 | 47 | 976.4 |
| 20260904171017 | 98 | 259 | 2.0 | 8.0 | 0.00 | 0.00 | 0.00 | 46 | 976.6 |
| 20260904170518 | 97 | 360 | 1.0 | 8.0 | 0.00 | 0.00 | 0.00 | 47 | 976.5 |
| 20260904170015 | 97 | 184 | 2.0 | 6.0 | 0.00 | 0.00 | 0.00 | 48 | 976.6 |
| 20260904165514 | 96 | 24 | 0.0 | 8.0 | 0.00 | 0.00 | 0.00 | 48 | 976.7 |
| 20260904165013 | 96 | 40 | 3.0 | 8.0 | 0.00 | 0.00 | 0.00 | 49 | 976.6 |
| 20260904164513 | 95 | 249 | 2.0 | 9.0 | 0.00 | 0.00 | 0.00 | 50 | 976.6 |
| 20260904164013 | 95 | 270 | 2.0 | 9.0 | 0.00 | 0.00 | 0.00 | 49 | 976.8 |
| 20260904163511 | 96 | 233 | 1.0 | 6.0 | 0.00 | 0.00 | 0.00 | 50 | 976.8 |
| 20260904163011 | 96 | 202 | 2.0 | 10.0 | 0.00 | 0.00 | 0.00 | 49 | 976.8 |
| 20260904162512 | 96 | 219 | 3.0 | 10.0 | 0.00 | 0.00 | 0.00 | 50 | 977.0 |
| 20260904162012 | 96 | 251 | 2.0 | 16.0 | 0.00 | 0.00 | 0.00 | 50 | 977.0 |
| 20260904161513 | 96 | 47 | 1.0 | 16.0 | 0.00 | 0.00 | 0.00 | 52 | 977.0 |
| 20260904161010 | 96 | 246 | 2.0 | 8.0 | 0.00 | 0.00 | 0.00 | 51 | 977.0 |
| 20260904160510 | 96 | 24 | 2.0 | 6.0 | 0.00 | 0.00 | 0.00 | 51 | 977.0 |
| 20260904160013 | 96 | 89 | 2.0 | 11.0 | 0.00 | 0.00 | 0.00 | 52 | 977.2 |
| 20260904155507 | 95 | 248 | 4.0 | 11.0 | 0.00 | 0.00 | 0.00 | 52 | 977.0 |
| 20260904155010 | 95 | 204 | 2.0 | 7.0 | 0.00 | 0.00 | 0.00 | 54 | 977.1 |
| 20260904154520 | 94 | 264 | 3.0 | 8.0 | 0.00 | 0.00 | 0.00 | 53 | 977.1 |
| 20260904154007 | 94 | 209 | 3.0 | 8.0 | 0.00 | 0.00 | 0.00 | 55 | 977.1 |
| 20260904153504 | 94 | 236 | 3.0 | 10.0 | 0.00 | 0.00 | 0.00 | 56 | 977.2 |
| 20260904153003 | 94 | 225 | 4.0 | 7.0 | 0.00 | 0.00 | 0.00 | 56 | 977.1 |
| 20260904152502 | 93 | 91 | 2.0 | 8.0 | 0.00 | 0.00 | 0.00 | 57 | 977.1 |
| 20260904152059 | 93 | 14 | 1.0 | 6.0 | 0.00 | 0.00 | 0.00 | 61 | 977.1 |
| 20260904151559 | 93 | 31 | 2.0 | 6.0 | 0.00 | 0.00 | 0.00 | 61 | 977.2 |
| 20260904151057 | 92 | 5 | 1.0 | 9.0 | 0.00 | 0.00 | 0.00 | 62 | 977.2 |
| 20260904150600 | 92 | 38 | 5.0 | 10.0 | 0.00 | 0.00 | 0.00 | 62 | 977.2 |
| 20260904150055 | 92 | 33 | 4.0 | 10.0 | 0.00 | 0.00 | 0.00 | 62 | 977.3 |
| 20260904145555 | 91 | 270 | 2.0 | 7.0 | 0.00 | 0.00 | 0.00 | 63 | 977.3 |
| 20260904145053 | 91 | 24 | 2.0 | 8.0 | 0.00 | 0.00 | 0.00 | 64 | 977.3 |
| 20260904144554 | 91 | 10 | 3.0 | 9.0 | 0.00 | 0.00 | 0.00 | 64 | 977.3 |
| 20260904144050 | 90 | 20 | 3.0 | 9.0 | 0.00 | 0.00 | 0.00 | 64 | 977.4 |
| 20260904143549 | 90 | 269 | 2.0 | 7.0 | 0.00 | 0.00 | 0.00 | 65 | 977.3 |
| 20260904143048 | 90 | 242 | 1.0 | 5.0 | 0.00 | 0.00 | 0.00 | 65 | 977.3 |
| 20260904142548 | 89 | 5 | 1.0 | 6.0 | 0.00 | 0.00 | 0.00 | 65 | 977.2 |
| 20260904142046 | 89 | 274 | 1.0 | 6.0 | 0.00 | 0.00 | 0.00 | 66 | 977.3 |
| 20260904141545 | 88 | 268 | 3.0 | 8.0 | 0.00 | 0.00 | 0.00 | 67 | 977.3 |
| 20260904141045 | 88 | 16 | 2.0 | 7.0 | 0.00 | 0.00 | 0.00 | 68 | 977.3 |
| 20260904140542 | 88 | 10 | 2.0 | 6.0 | 0.00 | 0.00 | 0.00 | 69 | 977.3 |
| 20260904140041 | 87 | 10 | 2.0 | 6.0 | 0.00 | 0.00 | 0.00 | 69 | 977.3 |
| 20260904135541 | 87 | 5 | 2.0 | 5.0 | 0.00 | 0.00 | 0.00 | 70 | 977.3 |
| 20260904135040 | 86 | 271 | 1.0 | 6.0 | 0.00 | 0.00 | 0.00 | 71 | 977.4 |
| 20260904134547 | 86 | 269 | 2.0 | 6.0 | 0.00 | 0.00 | 0.00 | 71 | 977.4 |
| 20260904134041 | 85 | 245 | 2.0 | 8.0 | 0.00 | 0.00 | 0.00 | 72 | 977.4 |
| 20260904133538 | 85 | 10 | 2.0 | 8.0 | 0.00 | 0.00 | 0.00 | 73 | 977.5 |
| 20260904133054 | 84 | 17 | 3.0 | 8.0 | 0.00 | 0.00 | 0.00 | 73 | 977.5 |
| 20260904132533 | 84 | 271 | 2.0 | 7.0 | 0.00 | 0.00 | 0.00 | 74 | 977.5 |
| 20260904132031 | 84 | 360 | 3.0 | 6.0 | 0.00 | 0.00 | 0.00 | 74 | 977.5 |
| 20260904131531 | 83 | 5 | 2.0 | 5.0 | 0.00 | 0.00 | 0.00 | 75 | 977.4 |
| 20260904131029 | 83 | 15 | 2.0 | 5.0 | 0.00 | 0.00 | 0.00 | 76 | 977.4 |
| 20260904130528 | 82 | 270 | 2.0 | 6.0 | 0.00 | 0.00 | 0.00 | 77 | 977.5 |